Tracking 20945 objects as of 9-Jul-2020
HD Live streaming from Space Station
objects crossing your sky now

ASTRON

Track ASTRON now!
ASTRON is classified as:


NORAD ID: 13901
Int'l Code: 1983-020A
Perigee: 2,501.5 km
Apogee: 201,720.6 km
Inclination: 14.4 °
Period: 5,926.5 minutes
Semi major axis: 108482 km
RCS: 7.9432 m2 (large)
Launch date: March 23, 1983
Source: Commonwealth of Independent States (former USSR) (CIS)
Launch site: TYURATAM MISSILE AND SPACE COMPLEX (TTMTR)
aabbcc
Your satellite tracking list
Your tracking list is empty




NASA's NSSDC Master Catalog

Two Line Element Set (TLE):
1 13901U 83020A   20081.29665395 -.00000359 +00000-0 +00000-0 0  9991
2 13901 014.4335 110.8627 9182126 319.2156 359.2908 00.24297753045887
Source of the keplerian elements: AFSPC